Weather History for Knoxville, TN

Change the Weather History Date:

Thursday, June 20, 2013

  Actual Average Record
Temperature  
Mean Temperature 77 °F 76 °F  
Max Temperature 88 °F 87 °F 98 °F (1931)
Min Temperature 65 °F 66 °F 51 °F (1985)
Degree Days  
Heating Degree Days 0 0  
Month to date heating degree days 0 0  
Since 1 June heating degree days 0 0  
Since 1 July heating degree days 3625 3633  
Cooling Degree Days 12 11  
Month to date cooling degree days 199 183  
Year to date cooling degree days 355 345  
Since 1 June cooling degree days 199 183  
Growing Degree Days 26 (Base 50)    
Moisture  
Dew Point 65 °F    
Average Humidity 69    
Maximum Humidity 93    
Minimum Humidity 45    
Precipitation  
Precipitation 0.00 in 0.12 in 1.82 in (1969)
Month to date precipitation 6.89 2.46  
Year to date precipitation 38.31 23.90  
Snow  
Snow 0.00 in 0.00 in - ()
Month to date snowfall 0.0 0.0  
Since 1 June snowfall 0.0 0.0  
Since 1 July snowfall 3.8 6.5  
Snow Depth 0.00 in    
Sea Level Pressure  
Sea Level Pressure 30.13 in    
Wind  
Wind Speed 4 mph (SSW)    
Max Wind Speed 16 mph    
Max Gust Speed 20 mph    
Visibility 10 miles    
Events Rain , Thunderstorm    
T = Trace of Precipitation, MM = Missing Value Source: NWS Daily Summary

Daily Weather History Graph

Daily Weather History Graph

Search for Another Location

Airport:

Trip Planner

Search our weather history database for the weather conditions in past years. The results will help you decide how hot, cold, wet, or windy it might be!

Date:

Astronomy

Jun. 20, 2013 Rise Set
Actual Time 6:19 AM EDT 8:55 PM EDT
Civil Twilight 5:49 AM EDT 9:25 PM EDT
Nautical Twilight 5:12 AM EDT 10:02 PM EDT
Astronomical Twilight 4:30 AM EDT 10:44 PM EDT
Moon 5:59 PM EDT (6/20) 3:41 AM EDT (6/20)
Length of Visible Light 15h 35m
Length of Day
14h 35m
Waxing Gibbous, 89% of the Moon is Illuminated
Jun 20
Waxing Gibbous
Jun 23
Full
Jun 30
Last Quarter
Jul 8
New
Jul 15
First Quarter

Hourly Weather History & Observations

Time (EDT) Temp. Heat Index Dew Point Humidity Pressure Visibility Wind Dir Wind Speed Gust Speed Precip Events Conditions
12:53 AM 71.1 °F - 64.9 °F 81% 30.07 in 10.0 mi Calm Calm - N/A   Clear
1:53 AM 71.1 °F - 64.9 °F 81% 30.06 in 10.0 mi Calm Calm - N/A   Clear
2:53 AM 68.0 °F - 64.9 °F 90% 30.07 in 10.0 mi NW 3.5 mph - N/A   Partly Cloudy
3:53 AM 66.0 °F - 64.0 °F 93% 30.08 in 9.0 mi Calm Calm - N/A   Clear
4:53 AM 66.0 °F - 64.0 °F 93% 30.10 in 9.0 mi Calm Calm - N/A   Clear
5:53 AM 66.0 °F - 63.0 °F 90% 30.12 in 10.0 mi SW 3.5 mph - N/A   Scattered Clouds
6:53 AM 64.9 °F - 63.0 °F 93% 30.13 in 8.0 mi Calm Calm - N/A   Scattered Clouds
7:53 AM 68.0 °F - 64.9 °F 90% 30.14 in 10.0 mi East 3.5 mph - N/A   Scattered Clouds
8:53 AM 72.0 °F - 66.0 °F 81% 30.16 in 10.0 mi Calm Calm - N/A   Scattered Clouds
9:53 AM 75.0 °F - 66.0 °F 73% 30.17 in 10.0 mi Calm Calm - N/A   Mostly Cloudy
10:53 AM 78.1 °F - 66.9 °F 68% 30.17 in 10.0 mi Calm Calm - N/A   Mostly Cloudy
11:53 AM 81.0 °F 83.3 °F 66.9 °F 62% 30.17 in 10.0 mi Variable 3.5 mph - N/A   Mostly Cloudy
12:53 PM 82.9 °F 85.0 °F 66.0 °F 56% 30.17 in 10.0 mi Calm Calm - N/A   Scattered Clouds
1:53 PM 84.0 °F 85.8 °F 64.9 °F 53% 30.15 in 10.0 mi Variable 3.5 mph - N/A   Scattered Clouds
2:53 PM 84.9 °F 86.1 °F 64.0 °F 49% 30.12 in 10.0 mi Variable 4.6 mph - N/A   Scattered Clouds
3:53 PM 86.0 °F 87.3 °F 64.0 °F 48% 30.12 in 10.0 mi East 5.8 mph - N/A   Mostly Cloudy
4:53 PM 86.0 °F 86.8 °F 63.0 °F 46% 30.10 in 10.0 mi East 5.8 mph - N/A   Mostly Cloudy
5:53 PM 84.9 °F 85.4 °F 62.1 °F 46% 30.10 in 10.0 mi ENE 3.5 mph - N/A   Mostly Cloudy
6:05 PM 84.2 °F 85.6 °F 64.4 °F 51% 30.13 in 10.0 mi NE 4.6 mph - N/A Thunderstorm Thunderstorm
6:53 PM 81.0 °F 82.5 °F 64.0 °F 56% 30.09 in 10.0 mi NNW 8.1 mph - N/A Thunderstorm Thunderstorm
7:16 PM 80.6 °F 82.3 °F 64.4 °F 58% 30.14 in 10.0 mi North 6.9 mph - N/A   Mostly Cloudy
7:25 PM 80.6 °F 82.3 °F 64.4 °F 58% 30.15 in 10.0 mi Calm Calm - N/A Thunderstorm Thunderstorm
7:53 PM 78.1 °F - 64.9 °F 64% 30.14 in 10.0 mi SW 16.1 mph - N/A Thunderstorm Thunderstorm
8:07 PM 73.4 °F - 64.4 °F 73% 30.17 in 10.0 mi SSW 10.4 mph - N/A Thunderstorm Thunderstorm
8:35 PM 73.4 °F - 62.6 °F 69% 30.17 in 10.0 mi SSW 5.8 mph - N/A   Mostly Cloudy
8:53 PM 71.1 °F - 63.0 °F 75% 30.15 in 10.0 mi SSW 11.5 mph - N/A   Mostly Cloudy
9:53 PM 70.0 °F - 64.9 °F 84% 30.16 in 10.0 mi SW 6.9 mph - N/A   Overcast
10:53 PM 71.1 °F - 64.9 °F 81% 30.17 in 10.0 mi WSW 6.9 mph - N/A   Mostly Cloudy
11:53 PM 70.0 °F - 64.9 °F 84% 30.17 in 10.0 mi SW 6.9 mph - N/A   Mostly Cloudy